51,2013-07-17 19:27:02,1374089222,55.23692,-10.11362,3,2,2013-07-17 19:25:00,1374089100,19.84,1,15.8,0,4095,55.202,-10.075,42,48
52,2013-07-17 20:06:10,1374091570,55.18217,-10.16442,2,1,2013-07-17 20:00:00,1374091200,18.7,1,15.8,30,4095,55.202,-10.075,42,48
53,2013-07-17 21:06:11,1374095171,55.15833,-10.09158,2,2,2013-07-17 21:00:00,1374094800,16.9,2,15.8,30,0,55.1708,-10.0884,32,48
54,2013-07-17 22:06:12,1374098772,55.16348,-10.02979,2,4,2013-07-17 22:00:00,1374098400,15.12,6,15.8,30,60,55.1708,-10.0884,32,48
55,2013-07-17 23:06:10,1374102370,55.16348,-10.02979,3,1,2013-07-17 23:00:00,1374102000,15.13,5,15.8,30,120,55.1708,-10.0884,32,48
56,2013-07-18 00:06:21,1374105981,55.1686,-9.96798,4,2,2013-07-18 00:00:00,1374105600,15.11,6,15.6,30,0,55.1768,-10.0382,32,44
57,2013-07-18 01:06:10,1374109570,55.21303,-10.04073,8,1,2013-07-18 01:00:00,1374109200,15.1,6,15.6,30,60,55.1768,-10.0382,32,44
58,2013-07-18 02:06:11,1374113171,55.1686,-9.96798,2,2,2013-07-18 02:00:00,1374112800,15.1,5,15.6,30,120,55.1768,-10.0382,32,44
59,2013-07-18 03:06:13,1374116773,55.15833,-10.09158,2,4,2013-07-18 03:00:00,1374116400,15.1,6,15.6,30,0,55.1674,-10.036,50,48
60,2013-07-18 04:06:13,1374120373,55.15833,-10.09158,2,6,2013-07-18 04:00:00,1374120000,15.1,5,15.6,30,60,55.1674,-10.036,50,48
61,2013-07-18 05:06:12,1374123972,55.16348,-10.02979,3,2,2013-07-18 05:00:00,1374123600,15.1,5,15.6,30,120,55.1674,-10.036,50,48
62,2013-07-18 06:06:15,1374127575,55.19253,-10.04073,2,1,2013-07-18 06:00:00,1374127200,15.1,5,15.6,30,0,55.1786,-10.0578,32,48
63,2013-07-18 07:06:10,1374131170,55.18737,-10.10259,2,1,2013-07-18 07:00:00,1374130800,15.11,5,15.6,30,60,55.1786,-10.0578,32,48
64,2013-07-18 08:06:14,1374134774,55.16348,-10.02979,6,0,2013-07-18 08:00:00,1374134400,15.12,4,15.6,30,120,55.1786,-10.0578,32,48
65,2013-07-18 09:06:15,1374138375,55.15833,-10.09158,3,32,2013-07-18 09:00:00,1374138000,15.16,5,15.6,30,0,55.1978,-10.048,32,48
66,2013-07-18 10:06:12,1374141972,55.17282,-12.78757,190,4,2013-07-18 10:00:00,1374141600,15.18,4,15.6,30,60,55.1978,-10.048,32,48
67,2013-07-18 11:06:16,1374145576,55.19766,-9.97886,2,2,2013-07-18 11:00:00,1374145200,15.2,5,15.6,30,120,55.1978,-10.048,32,48
68,2013-07-18 12:06:10,1374149170,55.21253,-10.74315,96,3,2013-07-18 12:00:00,1374148800,15.24,5,15.6,30,0,55.2058,-10.0188,32,48
69,2013-07-18 13:06:14,1374152774,55.16348,-10.02979,4,2,2013-07-18 13:00:00,1374152400,15.29,5,15.6,30,60,55.2058,-10.0188,32,48
70,2013-07-18 14:06:17,1374156377,55.23173,-10.17551,65,2,2013-07-18 14:00:00,1374156000,15.31,4,15.6,30,120,55.2058,-10.0188,32,48
71,2013-07-18 15:06:11,1374159971,55.16348,-10.02979,5,3,2013-07-18 15:00:00,1374159600,15.43,5,15.6,30,0,55.1998,-9.9948,32,48
72,2013-07-18 16:06:14,1374163574,55.21816,-9.97886,80,1,2013-07-18 16:00:00,1374163200,15.5,5,15.6,30,60,55.1998,-9.9948,32,48
73,2013-07-18 17:06:33,1374167193,55.24723,-9.98976,6,1,2013-07-18 17:00:00,1374166800,15.54,5,15.6,30,120,55.1998,-9.9948,32,48
74,2013-07-18 18:06:11,1374170771,55.0967,-6.47175,232,2,2013-07-18 18:00:00,1374170400,15.54,6,15.6,31,0,55.2036,-10.0032,32,48
75,2013-07-18 19:06:14,1374174374,55.24723,-9.98976,5,12,2013-07-18 19:00:00,1374174000,15.56,5,15.6,30,60,55.2036,-10.0032,32,48
76,2013-07-18 20:06:11,1374177971,55.19306,-6.54834,231,8,2013-07-18 20:00:00,1374177600,15.5,4,15.6,30,120,55.2036,-10.0032,32,48
77,2013-07-18 21:06:13,1374181573,55.24209,-10.0517,4,9,2013-07-18 21:00:00,1374181200,15.41,4,15.6,30,0,55.2156,-10.0132,12,48
78,2013-07-18 22:06:13,1374185173,55.21303,-10.04073,6,15,2013-07-18 22:00:00,1374184800,15.43,3,15.6,30,60,55.2156,-10.0132,12,48
79,2013-07-18 23:06:12,1374188772,55.22326,-9.91696,2,7,2013-07-18 23:00:00,1374188400,15.4,3,15.6,30,120,55.2156,-10.0132,12,48
80,2013-07-19 00:06:11,1374192371,55.22326,-9.91696,1,1,2013-07-19 00:00:00,1374192000,15.36,4,15.6,30,0,55.2322,-9.98419999999999,30,48
81,2013-07-19 01:06:11,1374195971,55.24209,-10.0517,3,6,2013-07-19 01:00:00,1374195600,15.38,4,15.6,30,60,55.2322,-9.98419999999999,30,48
82,2013-07-19 02:06:11,1374199571,55.21816,-9.97886,6,1,2013-07-19 02:00:00,1374199200,15.37,4,15.6,30,120,55.2322,-9.98419999999999,30,48
83,2013-07-19 03:06:11,1374203171,55.22326,-9.91696,3,1,2013-07-19 03:00:00,1374202800,15.35,3,15.6,30,0,55.2316,-9.96039999999999,8,48
84,2013-07-19 04:06:13,1374206773,55.22326,-9.91696,3,5,2013-07-19 04:00:00,1374206400,15.31,5,15.6,30,60,55.2316,-9.96039999999999,8,48
85,2013-07-19 05:06:12,1374210372,55.24723,-9.98976,4,1,2013-07-19 05:00:00,1374210000,15.28,6,15.6,30,120,55.2316,-9.96039999999999,8,48
86,2013-07-19 06:06:13,1374213973,55.21816,-9.97886,3,1,2013-07-19 06:00:00,1374213600,15.29,4,15.6,30,0,55.228,-9.96939999999998,54,44
87,2013-07-19 07:06:11,1374217571,55.21816,-9.97886,2,1,2013-07-19 07:00:00,1374217200,15.28,5,15.6,30,60,55.228,-9.96939999999998,54,44
88,2013-07-19 08:06:16,1374221176,55.24723,-9.98976,12,0,2013-07-19 08:00:00,1374220800,15.31,4,15.6,30,120,55.228,-9.96939999999998,54,44
89,2013-07-19 09:06:11,1374224771,55.22326,-9.91696,2,1,2013-07-19 09:00:00,1374224400,15.34,5,15.6,30,0,55.235,-9.98259999999999,12,44
90,2013-07-19 10:06:10,1374228370,55.14867,-14.99616,325,3,2013-07-19 10:00:00,1374228000,15.37,5,15.6,30,60,55.235,-9.98259999999999,12,44
91,2013-07-19 11:06:24,1374231984,55.21816,-9.97886,5,3,2013-07-19 11:00:00,1374231600,15.4,6,15.6,30,120,55.235,-9.98259999999999,12,44
92,2013-07-19 12:06:13,1374235573,55.38479,-12.79587,193,3,2013-07-19 12:00:00,1374235200,15.45,5,15.6,30,0,55.2444,-9.96979999999999,30,48
93,2013-07-19 13:06:24,1374239184,55.24723,-9.98976,1,2,2013-07-19 13:00:00,1374238800,15.59,5,15.6,30,60,55.2444,-9.96979999999999,30,48
94,2013-07-19 14:06:15,1374242775,55.36248,-12.72039,198,2,2013-07-19 14:00:00,1374242400,15.66,5,15.6,30,120,55.2444,-9.96979999999999,30,48
95,2013-07-19 15:06:12,1374246372,55.22326,-9.91696,2,7,2013-07-19 15:00:00,1374246000,15.7,5,15.6,30,0,55.2392,-9.95759999999999,54,48
96,2013-07-19 16:06:14,1374249974,55.16937,-9.20433,83,2,2013-07-19 16:00:00,1374249600,15.75,5,15.6,30,60,55.2392,-9.95759999999999,54,48
97,2013-07-19 17:06:18,1374253578,55.21816,-9.97886,2,2,2013-07-19 17:00:00,1374253200,15.79,5,15.6,30,120,55.2392,-9.95759999999999,54,48
98,2013-07-19 18:06:11,1374257171,55.23765,-8.96609,97,1,2013-07-19 18:00:00,1374256800,15.81,6,15.6,30,0,55.2426,-9.97919999999999,60,48
99,2013-07-19 19:06:10,1374260770,55.2677,-9.98976,3,2,2013-07-19 19:00:00,1374260400,15.82,5,15.6,30,60,55.2426,-9.97919999999999,60,48
100,2013-07-19 20:06:13,1374264373,55.21816,-9.97886,13,6,2013-07-19 20:00:00,1374264000,15.81,6,15.6,30,120,55.2426,-9.97919999999999,60,48
101,2013-07-19 21:06:16,1374267976,55.27281,-9.92779,2,3,2013-07-19 21:00:00,1374267600,15.78,5,15.6,30,0,55.2628,-9.98939999999999,18,44
102,2013-07-19 22:06:10,1374271570,55.21816,-9.97886,4,3,2013-07-19 22:00:00,1374271200,15.77,7,15.6,30,60,55.2628,-9.98939999999999,18,44
103,2013-07-19 23:06:11,1374275171,55.24209,-10.0517,10,7,2013-07-19 23:00:00,1374274800,15.76,5,15.6,30,120,55.2628,-9.98939999999999,18,44
104,2013-07-20 00:06:11,1374278771,55.24723,-9.98976,4,1,2013-07-20 00:00:00,1374278400,15.75,5,15.6,30,0,55.2736,-9.96599999999998,56,48
105,2013-07-20 01:06:10,1374282370,55.3019,-9.93865,4,5,2013-07-20 01:00:00,1374282000,15.74,5,15.6,30,60,55.2736,-9.96599999999998,56,48
106,2013-07-20 02:06:12,1374285972,55.24723,-9.98976,3,1,2013-07-20 02:00:00,1374285600,15.73,5,15.6,30,120,55.2736,-9.96599999999998,56,48
107,2013-07-20 03:06:13,1374289573,55.3019,-9.93865,8,7,2013-07-20 03:00:00,1374289200,15.71,5,15.6,30,0,55.2746,-9.93779999999998,62,44
108,2013-07-20 04:06:11,1374293171,55.25234,-9.92779,2,1,2013-07-20 04:00:00,1374292800,15.69,5,15.6,30,60,55.2746,-9.93779999999998,62,44
109,2013-07-20 05:06:12,1374296772,55.24723,-9.98976,3,7,2013-07-20 05:00:00,1374296400,15.65,4,15.6,30,120,55.2746,-9.93779999999998,62,44
110,2013-07-20 06:06:10,1374300370,55.24723,-9.98976,2,1,2013-07-20 06:00:00,1374300000,15.66,4,15.6,30,0,55.2684,-9.94539999999998,62,48
111,2013-07-20 07:06:12,1374303972,55.3019,-9.93865,12,1,2013-07-20 07:00:00,1374303600,15.68,5,15.6,30,60,55.2684,-9.94539999999998,62,48
112,2013-07-20 08:06:14,1374307574,55.27281,-9.92779,2,1,2013-07-20 08:00:00,1374307200,15.73,5,15.6,30,120,55.2684,-9.94539999999998,62,48
113,2013-07-20 09:06:16,1374311176,55.29679,-10.00068,2,18,2013-07-20 09:00:00,1374310800,15.78,5,15.6,30,0,55.2832,-9.9744,32,48
114,2013-07-20 10:06:14,1374314774,55.2677,-9.98976,8,1,2013-07-20 10:00:00,1374314400,15.85,4,15.6,30,60,55.2832,-9.9744,32,48
115,2013-07-20 11:06:10,1374318370,55.3019,-9.93865,3,3,2013-07-20 11:00:00,1374318000,16.12,5,15.6,30,120,55.2832,-9.9744,32,48
116,2013-07-20 12:06:10,1374321970,55.58278,-15.36094,353,3,2013-07-20 12:00:00,1374321600,16.55,5,15.6,30,0,55.299,-9.9546,32,48
117,2013-07-20 13:06:14,1374325574,55.32235,-9.93865,5,2,2013-07-20 13:00:00,1374325200,16.46,4,15.6,30,60,55.299,-9.9546,32,48
118,2013-07-20 14:06:10,1374329170,55.49611,-14.32794,10,8,2013-07-20 14:00:00,1374328800,16.47,5,15.6,30,120,55.299,-9.9546,32,48
119,2013-07-20 15:06:13,1374332773,55.30698,-9.8766,3,2,2013-07-20 15:00:00,1374332400,16.59,4,15.6,30,0,55.302,-9.92140000000001,32,48
120,2013-07-20 16:06:10,1374336370,55.3764,-11.37182,115,6,2013-07-20 16:00:00,1374336000,16.91,5,15.6,30,60,55.302,-9.92140000000001,32,48
121,2013-07-20 17:06:14,1374339974,55.3019,-9.93865,2,3,2013-07-20 17:00:00,1374339600,16.95,4,15.6,30,120,55.302,-9.92140000000001,32,48
122,2013-07-20 18:06:14,1374343574,55.22371,-9.15234,241,3,2013-07-20 18:00:00,1374343200,16.95,4,15.6,30,0,55.2942,-9.92679999999999,32,48
123,2013-07-20 19:06:14,1374347174,55.27788,-9.86581,2,3,2013-07-20 19:00:00,1374346800,17.21,5,15.6,30,60,55.2942,-9.92679999999999,32,48
124,2013-07-20 20:06:12,1374350772,55.24425,-8.45923,119,6,2013-07-20 20:00:00,1374350400,17.2,5,15.6,30,120,55.2942,-9.92679999999999,32,48
125,2013-07-20 21:06:15,1374354375,55.29679,-10.00068,2,4,2013-07-20 21:00:00,1374354000,17.12,5,15.6,30,0,55.306,-9.96439999999998,12,44
126,2013-07-20 22:06:11,1374357971,55.31946,-8.09445,148,6,2013-07-20 22:00:00,1374357600,16.99,5,15.6,30,60,55.306,-9.96439999999998,12,44
127,2013-07-20 23:06:11,1374361571,55.3019,-9.93865,2,11,2013-07-20 23:00:00,1374361200,16.86,4,15.6,30,120,55.306,-9.96439999999998,12,44
128,2013-07-21 00:06:14,1374365174,55.3019,-9.93865,2,5,2013-07-21 00:00:00,1374364800,16.82,5,15.6,30,0,55.327,-9.94799999999998,32,48
129,2013-07-21 01:06:11,1374368771,55.35654,-9.88742,23,2,2013-07-21 01:00:00,1374368400,16.78,4,15.6,30,60,55.327,-9.94799999999998,32,48
130,2013-07-21 02:06:14,1374372374,55.30698,-9.8766,2,5,2013-07-21 02:00:00,1374372000,16.8,5,15.6,30,120,55.327,-9.94799999999998,32,48
131,2013-07-21 03:06:17,1374375977,55.44108,-7.28968,178,2,2013-07-21 03:00:00,1374375600,16.48,5,15.6,30,0,55.3308,-9.89939999999999,8,48
132,2013-07-21 04:06:15,1374379575,55.32235,-9.93865,2,4,2013-07-21 04:00:00,1374379200,16.52,5,15.6,30,60,55.3308,-9.89939999999999,8,48
133,2013-07-21 05:06:12,1374383172,55.31204,-9.81452,3,6,2013-07-21 05:00:00,1374382800,16.47,5,15.6,30,120,55.3308,-9.89939999999999,8,48
134,2013-07-21 06:06:15,1374386775,55.31204,-9.81452,2,0,2013-07-21 06:00:00,1374386400,16.32,6,15.6,30,0,55.315,-9.8844,54,48
135,2013-07-21 07:06:11,1374390371,55.3019,-9.93865,3,5,2013-07-21 07:00:00,1374390000,16.43,6,15.6,30,60,55.315,-9.8844,54,48
136,2013-07-21 08:06:14,1374393974,55.3019,-9.93865,3,0,2013-07-21 08:00:00,1374393600,16.42,5,15.6,30,120,55.315,-9.8844,54,48
137,2013-07-21 09:06:13,1374397573,55.3019,-9.93865,4,2,2013-07-21 09:00:00,1374397200,16.38,5,15.6,30,0,55.312,-9.92499999999998,16,44
138,2013-07-21 10:06:13,1374401173,55.35145,-9.94954,6,4,2013-07-21 10:00:00,1374400800,16.4,4,15.6,30,60,55.312,-9.92499999999998,16,44
139,2013-07-21 11:06:11,1374404771,55.30698,-9.8766,2,7,2013-07-21 11:00:00,1374404400,16.55,4,15.6,30,120,55.312,-9.92499999999998,16,44
140,2013-07-21 12:06:13,1374408373,55.34632,-10.01163,4,8,2013-07-21 12:00:00,1374408000,16.68,4,15.6,30,0,55.3354,-9.94839999999999,30,44
141,2013-07-21 13:06:12,1374411972,55.32235,-9.93865,4,2,2013-07-21 13:00:00,1374411600,16.62,5,15.6,30,60,55.3354,-9.94839999999999,30,44
142,2013-07-21 14:06:13,1374415573,55.3616,-9.82528,3,2,2013-07-21 14:00:00,1374415200,16.79,5,15.6,30,120,55.3354,-9.94839999999999,30,44
143,2013-07-21 15:06:11,1374419171,55.35145,-9.94954,2,3,2013-07-21 15:00:00,1374418800,16.78,6,15.6,30,0,55.356,-9.90199999999999,84,44
144,2013-07-21 16:06:14,1374422774,55.53943,-14.22077,292,6,2013-07-21 16:00:00,1374422400,16.8,7,15.6,30,60,55.356,-9.90199999999999,84,44
145,2013-07-21 17:06:15,1374426375,55.30698,-9.8766,7,2,2013-07-21 17:00:00,1374426000,16.78,6,15.6,30,120,55.356,-9.90199999999999,84,44
146,2013-07-21 18:06:12,1374429972,55.38052,-10.66619,85,3,2013-07-21 18:00:00,1374429600,16.75,6,15.6,30,0,55.343,-9.86419999999998,78,44
147,2013-07-21 19:06:22,1374433582,55.3616,-9.82528,5,2,2013-07-21 19:00:00,1374433200,16.81,6,15.6,30,60,55.343,-9.86419999999998,78,44
148,2013-07-21 20:06:10,1374437170,55.36951,-10.7902,111,2,2013-07-21 20:00:00,1374436800,16.75,5,15.6,30,120,55.343,-9.86419999999998,78,44
149,2013-07-21 21:06:12,1374440772,55.35145,-9.94954,4,5,2013-07-21 21:00:00,1374440400,16.74,7,15.6,30,0,55.333,-9.89679999999998,32,44
150,2013-07-21 22:06:15,1374444375,55.3019,-9.93865,15,3,2013-07-21 22:00:00,1374444000,16.68,6,15.6,30,60,55.333,-9.89679999999998,32,44
151,2013-07-21 23:06:10,1374447970,55.35654,-9.88742,3,1,2013-07-21 23:00:00,1374447600,16.82,4,15.6,30,120,55.333,-9.89679999999998,32,44
152,2013-07-22 00:06:12,1374451572,55.35654,-9.88742,2,5,2013-07-22 00:00:00,1374451200,16.74,5,15.6,30,0,55.3586,-9.9342,32,48
153,2013-07-22 01:06:10,1374455170,55.36508,-10.14685,70,1,2013-07-22 01:00:00,1374454800,16.71,4,15.6,30,60,55.3586,-9.9342,32,48
154,2013-07-22 02:06:11,1374458771,55.38057,-9.96044,2,1,2013-07-22 02:00:00,1374458400,16.66,4,15.6,30,120,55.3586,-9.9342,32,48
155,2013-07-22 03:06:10,1374462370,55.42034,-8.94307,123,8,2013-07-22 03:00:00,1374462000,16.64,5,15.6,30,0,55.383,-9.8896,14,44
156,2013-07-22 04:06:13,1374465973,55.41114,-9.83605,3,3,2013-07-22 04:00:00,1374465600,16.62,4,15.6,30,60,55.383,-9.8896,14,44
157,2013-07-22 05:06:10,1374469570,55.40607,-9.89826,7,6,2013-07-22 05:00:00,1374469200,16.55,4,15.6,30,120,55.383,-9.8896,14,44
158,2013-07-22 06:06:13,1374473173,55.40607,-9.89826,4,1,2013-07-22 06:00:00,1374472800,16.48,4,15.6,30,0,55.374,-9.8442,36,44
159,2013-07-22 07:06:10,1374476770,55.35654,-9.88742,5,1,2013-07-22 07:00:00,1374476400,16.49,5,15.6,30,60,55.374,-9.8442,36,44
160,2013-07-22 08:06:10,1374480370,55.41114,-9.83605,7,1,2013-07-22 08:00:00,1374480000,16.53,5,15.6,30,120,55.374,-9.8442,36,44
161,2013-07-22 09:06:15,1374483975,55.3616,-9.82528,3,0,2013-07-22 09:00:00,1374483600,16.64,5,15.6,30,0,55.3596,-9.8586,32,48
162,2013-07-22 10:06:10,1374487570,55.3616,-9.82528,1,1,2013-07-22 10:00:00,1374487200,16.81,5,15.6,30,60,55.3596,-9.8586,32,48
163,2013-07-22 11:06:11,1374491171,55.35654,-9.88742,7,3,2013-07-22 11:00:00,1374490800,16.81,4,15.6,30,120,55.3596,-9.8586,32,48
164,2013-07-22 12:06:14,1374494774,55.3616,-9.82528,2,4,2013-07-22 12:00:00,1374494400,16.91,4,15.6,30,0,55.3666,-9.90439999999998,32,48
165,2013-07-22 13:06:11,1374498371,55.38057,-9.96044,1,2,2013-07-22 13:00:00,1374498000,17.08,4,15.6,30,60,55.3666,-9.90439999999998,32,48
166,2013-07-22 14:06:13,1374501973,55.40098,-9.96044,3,3,2013-07-22 14:00:00,1374501600,16.99,5,15.6,30,120,55.3666,-9.90439999999998,32,48
167,2013-07-22 15:06:19,1374505579,55.3616,-9.82528,2,2,2013-07-22 15:00:00,1374505200,17.09,5,15.6,30,0,55.3962,-9.8912,32,44
168,2013-07-22 16:06:11,1374509171,55.41114,-9.83605,4,7,2013-07-22 16:00:00,1374508800,17.1,4,15.6,30,60,55.3962,-9.8912,32,44
169,2013-07-22 17:06:15,1374512775,55.40607,-9.89826,2,4,2013-07-22 17:00:00,1374512400,17.1,4,15.6,30,120,55.3962,-9.8912,32,44
170,2013-07-22 18:06:11,1374516371,55.5925,-13.12784,221,2,2013-07-22 18:00:00,1374516000,17.01,5,15.6,30,0,55.4012,-9.83779999999999,50,44
171,2013-07-22 19:06:14,1374519974,55.41114,-9.83605,3,3,2013-07-22 19:00:00,1374519600,16.98,4,15.6,30,60,55.4012,-9.83779999999999,50,44
172,2013-07-22 20:06:09,1374523569,55.39881,-10.34436,112,2,2013-07-22 20:00:00,1374523200,17.02,5,15.6,30,120,55.4012,-9.83779999999999,50,44
173,2013-07-22 21:06:12,1374527172,55.41618,-9.77382,2,4,2013-07-22 21:00:00,1374526800,16.94,5,15.6,30,0,55.3958,-9.8372,32,44
174,2013-07-22 22:06:12,1374530772,55.3616,-9.82528,4,2,2013-07-22 22:00:00,1374530400,16.83,4,15.6,30,60,55.3958,-9.8372,32,44
175,2013-07-22 23:06:13,1374534373,55.35654,-9.88742,7,1,2013-07-22 23:00:00,1374534000,16.81,5,15.6,30,120,55.3958,-9.8372,32,44
176,2013-07-23 00:06:11,1374537971,55.38567,-9.89826,4,3,2013-07-23 00:00:00,1374537600,16.79,5,15.6,30,0,55.397,-9.8672,30,44
177,2013-07-23 01:06:14,1374541574,55.31439,-11.80428,144,2,2013-07-23 01:00:00,1374541200,16.68,3,15.6,30,60,55.397,-9.8672,30,44
178,2013-07-23 02:06:11,1374545171,55.38567,-9.89826,3,2,2013-07-23 02:00:00,1374544800,16.66,4,15.6,30,120,55.397,-9.8672,30,44
179,2013-07-23 03:06:12,1374548772,55.47453,-8.89042,98,2,2013-07-23 03:00:00,1374548400,16.64,3,15.6,30,0,55.4184,-9.85939999999999,8,48
180,2013-07-23 04:06:14,1374552374,55.41114,-9.83605,2,3,2013-07-23 04:00:00,1374552000,16.66,3,15.6,30,60,55.4184,-9.85939999999999,8,48
181,2013-07-23 05:06:13,1374555973,55.49258,-8.6403,102,1,2013-07-23 05:00:00,1374555600,16.61,3,15.6,30,120,55.4184,-9.85939999999999,8,48
182,2013-07-23 06:06:11,1374559571,55.41114,-9.83605,2,7,2013-07-23 06:00:00,1374559200,16.6,3,15.6,30,0,55.4256,-9.81879999999998,30,48
183,2013-07-23 07:06:11,1374563171,55.5467,-7.69096,173,2,2013-07-23 07:00:00,1374562800,16.55,5,15.6,30,60,55.4256,-9.81879999999998,30,48
184,2013-07-23 08:06:12,1374566772,55.41618,-9.77382,1,3,2013-07-23 08:00:00,1374566400,16.59,4,15.6,30,120,55.4256,-9.81879999999998,30,48
185,2013-07-23 09:06:13,1374570373,55.43522,-9.90912,3,3,2013-07-23 09:00:00,1374570000,16.62,4,15.6,30,0,55.423,-9.81219999999999,30,48
186,2013-07-23 10:06:12,1374573972,55.41114,-9.83605,5,1,2013-07-23 10:00:00,1374573600,16.67,4,15.6,30,60,55.423,-9.81219999999999,30,48
187,2013-07-23 11:06:12,1374577572,55.40607,-9.89826,2,18,2013-07-23 11:00:00,1374577200,16.74,4,15.6,30,120,55.423,-9.81219999999999,30,48
188,2013-07-23 12:06:13,1374581173,55.40607,-9.89826,2,2,2013-07-23 12:00:00,1374580800,16.78,4,15.6,30,0,55.4152,-9.83879999999999,30,48
189,2013-07-23 13:06:11,1374584771,55.44029,-9.84685,8,3,2013-07-23 13:00:00,1374584400,16.88,3,15.6,30,60,55.4152,-9.83879999999999,30,48
190,2013-07-23 14:06:12,1374588372,55.41114,-9.83605,3,2,2013-07-23 14:00:00,1374588000,17.07,3,15.6,30,120,55.4152,-9.83879999999999,30,48
191,2013-07-23 15:06:09,1374591969,55.40607,-9.89826,3,3,2013-07-23 15:00:00,1374591600,16.87,4,15.6,30,0,55.4254,-9.8554,30,44
192,2013-07-23 16:06:10,1374595570,55.40607,-9.89826,3,3,2013-07-23 16:00:00,1374595200,16.9,4,15.6,30,60,55.4254,-9.8554,30,44
193,2013-07-23 17:06:14,1374599174,55.46067,-9.84685,2,7,2013-07-23 17:00:00,1374598800,16.96,3,15.6,30,120,55.4254,-9.8554,30,44
194,2013-07-23 18:06:14,1374602774,55.65701,-13.28057,236,5,2013-07-23 18:00:00,1374602400,16.95,3,15.6,30,0,55.4416,-9.8252,32,44
195,2013-07-23 19:06:14,1374606374,55.41618,-9.77382,6,2,2013-07-23 19:00:00,1374606000,16.81,4,15.6,30,60,55.4416,-9.8252,32,44
196,2013-07-23 20:06:10,1374609970,55.5875,-12.60453,189,11,2013-07-23 20:00:00,1374609600,16.63,4,15.6,30,120,55.4416,-9.8252,32,44
197,2013-07-23 21:06:12,1374613572,55.44029,-9.84685,1,2,2013-07-23 21:00:00,1374613200,16.56,5,15.6,30,0,55.4406,-9.7998,18,40
198,2013-07-23 22:06:12,1374617172,55.56152,-12.26747,180,5,2013-07-23 22:00:00,1374616800,16.56,5,15.6,30,60,55.4406,-9.7998,18,40
199,2013-07-23 23:06:10,1374620770,55.41618,-9.77382,2,2,2013-07-23 23:00:00,1374620400,16.6,5,15.6,30,120,55.4406,-9.7998,18,40
200,2013-07-24 00:06:14,1374624374,55.41114,-9.83605,2,2,2013-07-24 00:00:00,1374624000,16.51,5,15.6,30,0,55.4326,-9.81299999999999,32,48
201,2013-07-24 01:06:13,1374627973,55.41114,-9.83605,3,6,2013-07-24 01:00:00,1374627600,16.5,6,15.6,30,60,55.4326,-9.81299999999999,32,48
202,2013-07-24 02:06:10,1374631570,55.41618,-9.77382,2,2,2013-07-24 02:00:00,1374631200,16.44,6,15.6,30,120,55.4326,-9.81299999999999,32,48
203,2013-07-24 03:06:12,1374635172,55.36467,-11.49552,125,1,2013-07-24 03:00:00,1374634800,16.4,4,15.6,30,0,55.4354,-9.83579999999998,8,48
204,2013-07-24 04:06:11,1374638771,55.44029,-9.84685,2,5,2013-07-24 04:00:00,1374638400,16.48,5,15.6,30,60,55.4354,-9.83579999999998,8,48
205,2013-07-24 05:06:19,1374642379,55.46571,-9.78456,3,1,2013-07-24 05:00:00,1374642000,16.51,5,15.6,30,120,55.4354,-9.83579999999998,8,48
206,2013-07-24 06:06:10,1374645970,55.46571,-9.78456,2,1,2013-07-24 06:00:00,1374645600,16.5,5,15.6,30,0,55.4586,-9.80699999999999,62,44
207,2013-07-24 07:06:10,1374649570,55.53477,-8.32718,114,2,2013-07-24 07:00:00,1374649200,16.48,4,15.6,30,60,55.4586,-9.80699999999999,62,44
208,2013-07-24 08:06:19,1374653179,55.48983,-9.85767,3,0,2013-07-24 08:00:00,1374652800,16.41,6,15.6,30,120,55.4586,-9.80699999999999,62,44
209,2013-07-24 09:06:11,1374656771,55.44029,-9.84685,12,2,2013-07-24 09:00:00,1374656400,16.28,6,15.6,30,0,55.462,-9.77199999999999,62,44
210,2013-07-24 10:06:14,1374660374,55.47073,-9.72224,5,1,2013-07-24 10:00:00,1374660000,16.23,6,15.6,30,60,55.462,-9.77199999999999,62,44
211,2013-07-24 11:06:13,1374663973,55.42118,-9.71157,3,2,2013-07-24 11:00:00,1374663600,16.16,6,15.6,30,120,55.462,-9.77199999999999,62,44
212,2013-07-24 12:06:13,1374667573,55.46571,-9.78456,4,3,2013-07-24 12:00:00,1374667200,16.23,5,15.6,30,0,55.442,-9.78100000000001,62,48
213,2013-07-24 13:06:09,1374671169,55.41114,-9.83605,6,2,2013-07-24 13:00:00,1374670800,16.31,6,15.6,30,60,55.442,-9.78100000000001,62,48
214,2013-07-24 14:06:12,1374674772,55.44534,-9.78456,2,3,2013-07-24 14:00:00,1374674400,16.42,6,15.6,30,120,55.442,-9.78100000000001,62,48
215,2013-07-24 15:06:14,1374678374,55.44029,-9.84685,2,2,2013-07-24 15:00:00,1374678000,16.45,6,15.6,30,0,55.4414,-9.81319999999999,32,44
216,2013-07-24 16:06:14,1374681974,55.44029,-9.84685,13,5,2013-07-24 16:00:00,1374681600,16.48,6,15.6,30,60,55.4414,-9.81319999999999,32,44
217,2013-07-24 17:06:18,1374685578,55.41618,-9.77382,10,3,2013-07-24 17:00:00,1374685200,16.5,5,15.6,30,120,55.4414,-9.81319999999999,32,44
218,2013-07-24 18:06:11,1374689171,55.77064,-14.84099,327,4,2013-07-24 18:00:00,1374688800,16.49,6,15.6,30,0,55.464,-9.798,32,48
219,2013-07-24 19:06:11,1374692771,55.46067,-9.84685,2,7,2013-07-24 19:00:00,1374692400,16.44,6,15.6,30,60,55.464,-9.798,32,48
220,2013-07-24 20:06:12,1374696372,55.49488,-9.79531,10,5,2013-07-24 20:00:00,1374696000,16.41,6,15.6,30,120,55.464,-9.798,32,48
221,2013-07-24 21:06:11,1374699971,55.49488,-9.79531,5,6,2013-07-24 21:00:00,1374699600,16.36,4,15.6,30,0,55.4674,-9.75019999999998,30,48
222,2013-07-24 22:06:11,1374703571,55.44534,-9.78456,2,5,2013-07-24 22:00:00,1374703200,16.32,6,15.6,30,60,55.4674,-9.75019999999998,30,48
223,2013-07-24 23:06:12,1374707172,55.47073,-9.72224,3,7,2013-07-24 23:00:00,1374706800,16.3,6,15.6,30,120,55.4674,-9.75019999999998,30,48
224,2013-07-25 00:06:11,1374710771,55.45035,-9.72224,2,5,2013-07-25 00:00:00,1374710400,16.29,5,15.6,30,0,55.4462,-9.74879999999999,30,48
225,2013-07-25 01:06:16,1374714376,55.37023,-14.35787,299,2,2013-07-25 01:00:00,1374714000,16.35,5,15.6,30,60,55.4462,-9.74879999999999,30,48
226,2013-07-25 02:06:11,1374717971,55.41618,-9.77382,5,4,2013-07-25 02:00:00,1374717600,16.29,5,15.6,30,120,55.4462,-9.74879999999999,30,48
227,2013-07-25 03:06:11,1374721571,55.27526,-13.15038,227,5,2013-07-25 03:00:00,1374721200,16.23,5,15.6,30,0,55.4434,-9.77079999999998,12,44
228,2013-07-25 04:06:15,1374725175,55.47073,-9.72224,3,1,2013-07-25 04:00:00,1374724800,16.27,6,15.6,30,60,55.4434,-9.77079999999998,12,44